Flag for Switzerland Weather past 2 weeks in Solothurn, Solothurn, Switzerland

Now
60 °F

Cool.


Feels Like: 60 °F
Forecast: 58 / 75 °F
Wind: 3 mph from Southwest

Location: Grenchen

Current Time: Jul 30, 2014 at 8:11:58 AM

Latest Report: Jul 30, 2014 at 7:00 AM


Visibility: N/A

Pressure: 29.85 "Hg

Humidity: 95%

Dew point: 58 °F

Location of SolothurnLocation

Historic Weather in Solothurn — Graph

°F

Solothurn temperature yesterday

Maximum temperature yesterday: 67 °F (at 7:00 PM)
Minimum temperature yesterday: 59 °F (at 4:00 AM)
Average temperature yesterday: 62 °F

Past Weeks' High & Low Weather Summary

 TemperatureHumidityPressure
High89 °F (Jul 18, 5:00 PM)100% (Jul 23, 5:00 AM)30.22 "Hg (Jul 23, 5:00 AM)
Low53 °F (Jul 16, 6:00 AM)18% (Jul 18, 5:00 PM)29.78 "Hg (Jul 28, 3:00 PM)
Average67 °F77%29.97 "Hg
* Reported Jul 15 6:00 AM — Jul 30 6:00 AM, Solothurn, Weather by CustomWeather, © 2014

Note: Actual official high and low records may vary slightly from our data, if they occured in-between our weather recording intervals... More about our weather records

Advertising

Solothurn weather history for previous 24 hours

 ConditionsComfort  
Time TempWeatherWind HumidityBarometerVisibility
6:00 AM
Jul 30
60 °FCool.3 mph93%29.85 "HgN/A
5:00 AM60 °FCool.6 mph93%29.83 "HgN/A
4:00 AM61 °FCool.5 mph93%29.85 "HgN/A
3:00 AM61 °FCool.3 mph92%29.86 "HgN/A
2:00 AM60 °FCool.5 mph94%29.86 "HgN/A
1:00 AM60 °FCool.7 mph94%29.86 "HgN/A
12:00 AM60 °FCool.8 mph93%29.86 "HgN/A
11:00 PM
Jul 29
62 °FCool.10 mph90%29.86 "HgN/A
10:00 PM64 °FMild.7 mph87%29.84 "HgN/A
9:00 PM65 °FMild.5 mph85%29.82 "HgN/A
8:00 PM67 °FMild.3 mph77%29.80 "HgN/A
7:00 PM67 °FMild.2 mph74%29.79 "HgN/A
6:00 PM66 °FMild.1 mph73%29.80 "HgN/A
5:00 PM65 °FMild.3 mph78%29.80 "HgN/A
4:00 PM64 °FMild.3 mph86%29.81 "HgN/A
3:00 PM65 °FMild.5 mph76%29.81 "HgN/A
2:00 PM66 °FMild.1 mph75%29.80 "HgN/A
1:00 PM64 °FMild.1 mph79%29.81 "HgN/A
12:00 PM63 °FMild.3 mph84%29.82 "HgN/A
11:00 AM62 °FCool.5 mph87%29.82 "HgN/A
10:00 AM61 °FCool.2 mph92%29.83 "HgN/A
9:00 AM60 °FCool.1 mph93%29.83 "HgN/A
8:00 AM60 °FCool.1 mph96%29.83 "HgN/A
Weather by CustomWeather, © 2014

See weather overviewHow to use our weather pages